TimeCDT,TemperatureF,Dew PointF,Humidity,Sea Level PressureIn,VisibilityMPH,Wind Direction,Wind SpeedMPH,Gust SpeedMPH,PrecipitationIn,Events,Conditions,WindDirDegrees,DateUTC
12:54 AM,36.0,34.0,93,29.81,8.0,WNW,3.5,-,N/A,,Clear,290,2012-10-20 05:54:00
1:54 AM,36.0,34.0,93,29.81,8.0,WSW,3.5,-,N/A,,Clear,250,2012-10-20 06:54:00
2:54 AM,35.1,33.1,92,29.81,6.0,South,4.6,-,N/A,,Clear,190,2012-10-20 07:54:00
3:54 AM,37.0,35.1,93,29.81,6.0,Calm,Calm,-,N/A,,Clear,0,2012-10-20 08:54:00
4:54 AM,35.1,33.1,92,29.81,6.0,ESE,3.5,-,N/A,,Clear,120,2012-10-20 09:54:00
5:54 AM,33.1,32.0,96,29.83,3.0,Calm,Calm,-,N/A,,Clear,0,2012-10-20 10:54:00
6:16 AM,35.6,32.0,87,29.81,1.5,SSE,4.6,-,N/A,,Clear,150,2012-10-20 11:16:00
6:24 AM,33.8,32.0,93,29.81,0.2,South,4.6,-,N/A,Fog,Fog,170,2012-10-20 11:24:00
6:43 AM,33.8,30.2,87,29.81,0.2,South,3.5,-,N/A,Fog,Fog,190,2012-10-20 11:43:00
6:54 AM,33.1,30.9,92,29.83,0.2,Calm,Calm,-,N/A,Fog,Fog,0,2012-10-20 11:54:00
7:54 AM,33.1,30.9,92,29.83,0.2,Calm,Calm,-,N/A,Fog,Fog,0,2012-10-20 12:54:00
8:54 AM,33.1,32.0,96,29.83,0.2,SSW,3.5,-,N/A,Fog,Fog,210,2012-10-20 13:54:00
9:54 AM,37.9,37.0,97,29.83,0.2,SE,3.5,-,N/A,Fog,Fog,140,2012-10-20 14:54:00
10:38 AM,44.6,42.8,93,29.83,2.5,SSE,4.6,-,N/A,,Overcast,160,2012-10-20 15:38:00
10:46 AM,44.6,42.8,93,29.82,4.0,SE,4.6,-,N/A,,Mostly Cloudy,140,2012-10-20 15:46:00
10:54 AM,46.0,43.0,89,29.83,5.0,SSE,5.8,-,N/A,,Scattered Clouds,150,2012-10-20 15:54:00
11:54 AM,53.1,44.1,71,29.81,10.0,SE,10.4,-,N/A,,Clear,140,2012-10-20 16:54:00
12:54 PM,57.0,45.0,64,29.79,10.0,SE,11.5,-,0.01,,Clear,140,2012-10-20 17:54:00
1:54 PM,61.0,44.1,54,29.74,10.0,SSE,13.8,-,N/A,,Clear,150,2012-10-20 18:54:00
2:54 PM,63.0,43.0,48,29.71,10.0,SE,13.8,-,N/A,,Clear,140,2012-10-20 19:54:00
3:54 PM,64.9,43.0,45,29.69,10.0,SE,13.8,-,N/A,,Clear,140,2012-10-20 20:54:00
4:54 PM,64.9,43.0,45,29.69,10.0,SE,12.7,-,N/A,,Clear,130,2012-10-20 21:54:00
5:54 PM,63.0,44.1,50,29.70,10.0,SE,9.2,-,N/A,,Clear,140,2012-10-20 22:54:00
6:54 PM,55.9,43.0,62,29.71,10.0,SE,9.2,-,N/A,,Clear,130,2012-10-20 23:54:00
7:54 PM,53.1,42.1,66,29.73,10.0,ESE,9.2,-,N/A,,Clear,120,2012-10-21 00:54:00
8:54 PM,52.0,42.1,69,29.73,10.0,SE,8.1,-,N/A,,Clear,140,2012-10-21 01:54:00
9:54 PM,46.9,39.9,77,29.73,10.0,SSE,6.9,-,N/A,,Clear,150,2012-10-21 02:54:00
10:54 PM,48.0,39.9,74,29.74,10.0,ESE,3.5,-,N/A,,Clear,120,2012-10-21 03:54:00
11:54 PM,48.9,41.0,74,29.73,10.0,SE,11.5,-,N/A,,Clear,140,2012-10-21 04:54:00